[[{"header":{"parameterUnit":"m.s-1","parameterCategory":1,"la1":30.2992,"la2":30.254,"lo1":-89.0895,"lo2":-89.0443,"dy":0.0025,"dx":0.0025,"nx":19,"ny":19,"refTime":"2026-05-23T09:00:00:Z","depth":0,"parameterNumber":2,"parameterNumberName":"U-component_of_WINDS"},"data":[0,0,0,-4.1818,-4.1821,-4.1955,-4.1956,-4.2138,-4.214,0,0,0,0,0,0,0,0,0,0,0,-4.1787,-4.1789,-4.1818,-4.1822,-4.1955,-4.1956,-4.2138,-4.214,0,0,0,0,0,0,0,0,0,0,0,-4.1787,-4.1788,-4.179,-4.1822,-4.1955,-4.1956,-4.2138,-4.2032,0,0,0,0,0,0,0,0,0,0,-4.19,-4.1881,-4.1788,-4.179,-4.1823,-4.1955,-4.1956,-4.2027,-4.2039,-4.2083,0,-4.2127,0,-4.2137,-4.2153,-4.2154,0,0,0,-4.1815,-4.1871,-4.1899,-4.1791,-4.1824,-4.1955,-4.1893,-4.2033,-4.2047,-4.2099,-4.2129,-4.2136,-4.214,-4.2155,-4.2156,-4.2438,-4.244,0,0,-4.1807,-4.1816,-4.189,-4.1908,-4.189,-4.1889,-4.1897,-4.2041,-4.2074,-4.213,-4.214,-4.2143,-4.2156,-4.2157,-4.2437,-4.2439,0,0,0,-4.1791,-4.1811,-4.1835,-4.1901,-4.1924,-4.1893,-4.1902,-4.2068,-4.2075,-4.2141,-4.2145,-4.2157,-4.2159,-4.2435,-4.2437,-4.2526,0,0,0,-4.1786,-4.1801,-4.1832,-4.1839,-4.1922,-4.1998,-4.1926,-4.2065,-4.2081,-4.2144,-4.2157,-4.2161,-4.2433,-4.2436,-4.2519,-4.2566,0,0,0,-4.1776,-4.18,-4.1822,-4.1839,-4.1897,-4.1995,-4.2011,-4.2068,-4.2083,-4.2154,-4.2162,-4.2432,-4.2436,-4.2514,-4.2556,-4.2641,0,0,0,-4.1766,-4.1899,-4.1824,-4.1973,-4.1896,-4.205,-4.201,-4.2124,-4.2195,-4.2158,-4.2433,-4.2437,-4.2512,-4.2551,-4.2635,-4.2713,-4.2747,0,0,-4.1939,-4.192,-4.2008,-4.1944,-4.2114,-4.2029,-4.2211,-4.2268,-4.2267,-4.2381,-4.2388,-4.2522,-4.2556,-4.264,-4.2936,-4.2963,0,0,0,-4.2065,-4.2128,-4.2171,-4.224,-4.2287,-4.2331,-4.236,-4.238,-4.2477,-4.2328,-4.2576,-4.2596,-4.2645,-4.2682,-4.2704,-4.2745,-4.2455,-4.2454,-4.2454,-4.232,-4.2311,-4.2455,-4.2463,-4.253,-4.2558,-4.2611,-4.2644,-4.2616,-4.2675,-4.2708,-4.2888,-4.2932,-4.2949,-4.2991,-4.275,-4.275,-4.275,-4.275,-4.257,-4.2656,-4.2616,-4.274,-4.2731,-4.2834,-4.2866,-4.2843,-4.2937,-4.2863,-4.2906,-4.2823,-4.2979,-4.3015,-4.2757,-4.2756,-4.2755,-4.2754,-4.2754,-4.2734,-4.2774,-4.2798,-4.2896,-4.2972,-4.2975,-4.3068,-4.3056,-4.3045,-4.3087,-4.312,-4.3118,-4.3114,-4.3104,-4.3105,-4.3105,-4.3106,-4.3106,-4.3107,-4.2894,-4.2918,-4.2998,-4.306,-4.3102,-4.3156,-4.3185,-4.3226,-4.3267,-4.3251,-4.3251,-4.3216,-4.2996,-4.294,-4.3117,-4.3115,-4.3114,-4.3113,-4.3112,-4.3147,-4.3088,-4.3211,-4.3254,-4.3324,-4.34,-4.3384,-4.3468,-4.3499,-4.3545,-4.3502,-4.3342,-4.3321,-4.3303,-4.3256,-4.3504,-4.3504,-4.3504,-4.3504,-4.3284,-4.3274,-4.3396,-4.3464,-4.353,-4.3528,-4.3665,-4.369,-4.3705,-4.3724,-4.3687,-4.3624,-4.3606,-4.3597,-4.3572,-4.3528,-4.3839,-4.384,-4.384,-4.3439,-4.3434,-4.3554,-4.3569,-4.3623,-4.3669,-4.3798,-4.3877,-4.3882,-4.3853,-4.3738,-4.3724,-4.3623,-4.3591,-4.3558,-4.352,-4.3439,0,0]},{"header":{"parameterUnit":"m.s-1","parameterCategory":1,"la1":30.2992,"la2":30.254,"lo1":-89.0895,"lo2":-89.0443,"dy":0.0025,"dx":0.0025,"nx":19,"ny":19,"refTime":"2026-05-23T09:00:00:Z","depth":0,"parameterNumber":3,"parameterNumberName":"V-component_of_WINDS"},"data":[0,0,0,2.3616,2.3619,2.3738,2.3739,2.3899,2.3901,0,0,0,0,0,0,0,0,0,0,0,2.3585,2.3586,2.3616,2.3619,2.3738,2.3739,2.3899,2.3901,0,0,0,0,0,0,0,0,0,0,0,2.3584,2.3585,2.3587,2.3619,2.3738,2.3739,2.3899,2.3806,0,0,0,0,0,0,0,0,0,0,2.3688,2.3663,2.3585,2.3587,2.362,2.3738,2.3739,2.3801,2.3812,2.3848,0,2.3881,0,2.3894,2.3912,2.3913,0,0,0,2.3616,2.3655,2.3683,2.3587,2.3621,2.3738,2.3684,2.3807,2.3819,2.3862,2.3883,2.3889,2.3896,2.3913,2.3914,2.4133,2.4135,0,0,2.3609,2.3608,2.3675,2.3691,2.3673,2.368,2.3687,2.3814,2.3838,2.3884,2.3893,2.3899,2.3914,2.3915,2.4132,2.4134,0,0,0,2.3592,2.3604,2.3629,2.3685,2.3706,2.3683,2.3692,2.3832,2.384,2.3895,2.3901,2.3915,2.3917,2.4131,2.4133,2.4191,0,0,0,2.3588,2.3594,2.3626,2.3627,2.3703,2.377,2.3707,2.3831,2.3846,2.39,2.3915,2.3919,2.413,2.4132,2.4186,2.4218,0,0,0,2.3575,2.3592,2.3611,2.3627,2.3678,2.3768,2.3784,2.3835,2.385,2.3913,2.3919,2.4129,2.4132,2.4182,2.4212,2.4277,0,0,0,2.3562,2.366,2.3612,2.3725,2.3677,2.3802,2.3783,2.3876,2.3937,2.3916,2.413,2.4133,2.4181,2.4208,2.4273,2.4332,2.4357,0,0,2.3686,2.3675,2.3741,2.3702,2.3835,2.3784,2.3926,2.3983,2.3989,2.4085,2.409,2.4188,2.4212,2.4276,2.4491,2.451,0,0,0,2.3781,2.3829,2.3864,2.3922,2.3967,2.4009,2.4043,2.4064,2.4145,2.4038,2.4228,2.4242,2.428,2.4309,2.4325,2.4358,2.4145,2.4145,2.4145,2.3956,2.3959,2.407,2.4087,2.4143,2.4178,2.4224,2.4258,2.4244,2.4289,2.4318,2.4448,2.4482,2.4494,2.4528,2.4348,2.4349,2.4349,2.4349,2.414,2.4209,2.4188,2.4288,2.429,2.4374,2.4411,2.4399,2.4478,2.4426,2.446,2.4405,2.4515,2.4546,2.4353,2.4353,2.4352,2.4352,2.4351,2.4257,2.429,2.4313,2.4397,2.4461,2.4475,2.4552,2.4551,2.4551,2.4584,2.4616,2.4615,2.4615,2.4599,2.4599,2.46,2.46,2.4601,2.4601,2.437,2.4394,2.4459,2.4514,2.4551,2.46,2.4635,2.4672,2.4713,2.4706,2.4706,2.4689,2.4525,2.4484,2.4608,2.4607,2.4606,2.4605,2.4605,2.4558,2.4515,2.4615,2.4652,2.4718,2.4782,2.4779,2.4854,2.4884,2.4922,2.4898,2.4775,2.4765,2.4752,2.4719,2.4896,2.4896,2.4896,2.4896,2.4658,2.4652,2.4754,2.4813,2.4871,2.4879,2.4993,2.5021,2.5044,2.5063,2.5037,2.4992,2.4978,2.4976,2.4958,2.4927,2.5153,2.5153,2.5153,2.4774,2.4774,2.4871,2.4892,2.4943,2.4987,2.5094,2.5164,2.518,2.5164,2.5078,2.5067,2.4995,2.4971,2.4954,2.4926,2.4869,0,0]}]]